Back to catalog

METEOR 2-11 DEB

AlivePO
NORAD 40705·DEBRIS·🇷🇺 Russia

Launched Jul 5, 1984 from Plesetsk Cosmodrome

Loading…

Next Passes (next 24 hours)

TLE

FreshSource: Space-Track

Epoch: Sep 13, 2026, 09:34 UTC

1 40705U 84072G   26256.39887725  .00001839  00000-0  12775-2 0  9992
2 40705  82.5165 295.1887 0031790 141.8535 218.4892 13.98110381599666

Track METEOR 2-11 DEB in real time with AllMySat

Download on the App Store